Tracking 28514 objects as of 24-Feb-2024
HD Live streaming from Space Station
objects crossing your sky now

DELTA 1 R/B

Track DELTA 1 R/B now!
10-day predictions
DELTA 1 R/B is classified as:


NORAD ID: 20323
Int'l Code: 1989-089B
Perigee: 685.7 km
Apogee: 784.4 km
Inclination: 97.1 °
Period: 99.4 minutes
Semi major axis: 7106 km
RCS: 8.9124 m2 (large)
Launch date: November 18, 1989
Source: United States (US)
Launch site: AIR FORCE WESTERN TEST RANGE (AFWTR)

Note: This is a ROCKET BODY
Your satellite tracking list
Your tracking list is empty




NASA's NSSDC Master Catalog

Two Line Element Set (TLE):
1 20323U 89089B   24054.88024646  .00000903  00000-0  23870-3 0  9992
2 20323  97.1043   7.4033 0069477 313.3400  46.2019 14.49303537808322
Source of the keplerian elements: AFSPC